Location: Nitra
(0.0000°N, 18.0833°E)
Time: 13:12:51
(UTC+02:00)

Daily predictions for brighter satellites

Satellite Brightness Start Highest point End
(mag) Time Altitude Azimuth Time Altitude Azimuth Time Altitude Azimuth
GPS 2-14 Rocket1 3.1 19:13:26 10° WSW 19:17:17 61° NNW 19:21:04 10° ENE
Cosmos 1092 Rocket 4.5 19:11:54 10° NNE 19:17:32 37° E 19:23:08 10° SSE
CZ-4 R/B 1.8 19:14:50 10° S 19:18:49 65° WSW 19:22:43 10° NNW
Ariane H10+ 4.2 19:03:21 10° W 19:19:24 77° S 19:24:33 10° E
Delta 2 Rocket 4.2 19:15:57 10° WNW 19:21:53 61° SSW 19:27:59 10° SE
Cosmos 1842 4.2 19:22:46 10° SSW 19:26:34 52° W 19:30:19 10° N
Landsat 4 3.7 19:26:20 10° NNE 19:30:04 57° ESE 19:33:49 10° S
Cosmos 2263 Rocket 4.1 19:26:06 10° SW 19:31:13 35° WNW 19:36:18 10° N
SL-16 R/B 2.2 19:26:19 10° N 19:31:56 65° ENE 19:37:33 10° SSE
Cosmos 2228 4.0 19:29:27 10° NNE 19:33:12 28° E 19:36:56 10° SE
Aureole 1 Rocket 2.6 19:30:53 10° S 19:33:46 36° ESE 19:36:31 10° NNE
SME Rocket 3.0 19:31:37 10° SSE 19:35:45 54° ENE 19:39:22 10° N
Cosmos 2237 Rocket 4.0 19:31:31 10° NW 19:36:29 32° WSW 19:41:27 10° SSW
Cosmos 1805 4.1 19:33:42 10° NNE 19:37:05 29° E 19:39:56 13° SE
H-2A R/B 2.7 19:34:42 10° SSE 19:38:34 64° E 19:42:22 10° N
Cosmos 2285 Rocket 4.5 19:33:46 10° SSE 19:39:36 38° ESE 19:45:22 10° NE
Ariane H10-3 3.1 19:23:37 10° W 19:41:53 59° S 19:45:06 18° ESE
Ariane H10 2.0 19:40:36 10° WNW 19:43:13 37° N 19:44:50 15° ENE
IRS-1A Rocket 4.3 19:38:03 10° SSE 19:43:40 87° WSW 19:49:21 10° NNW
DELTA 2 R/B (1) 3.8 19:40:31 10° NW 19:46:01 67° SW 19:50:28 16° SE
Envisat 4.2 19:43:43 17° ESE 19:46:01 23° ENE 19:49:55 10° NNE
Cosmos 2058 Rocket 3.6 19:43:15 10° NNE 19:47:15 37° E 19:50:14 16° SSE
Cosmos 1766 3.1 19:43:43 10° N 19:47:37 74° E 19:51:31 10° S
YAOGAN 1 4.0 19:46:57 10° S 19:50:57 37° WSW 19:54:56 10° NW
Cosmos 1726 Rocket 3.5 19:46:49 10° N 19:51:12 73° E 19:55:34 10° S
Cosmos 1953 4.4 19:50:38 10° NE 19:51:32 12° ENE 19:51:32 12° ENE
EO 1 Del DPAF 4.3 19:49:31 10° N 19:53:08 47° WNW 19:56:48 10° SSW
Meteor 2-5 Rocket 4.5 19:48:25 10° SSE 19:53:38 32° E 19:58:50 10° NNE
Cosmos 1400 Rocket 2.9 19:49:39 10° S 19:53:41 55° E 19:57:38 10° NNE
SWIFT 4.2 19:51:06 10° NNW 19:54:17 20° NNE 19:56:50 13° ENE
Thor Agena Rocket 3.7 19:49:48 10° NNE 19:54:37 47° ESE 19:59:26 10° S
Meteor 1-22 Rocket 4.3 19:49:07 10° N 19:54:48 89° W 20:00:46 10° S
BREEZE-M DEB (TANK) 2.0 19:56:05 10° NNW 19:58:19 58° ENE 20:00:01 28° SE
Cosmos 1048 Rocket 4.0 19:54:00 10° SSW 19:59:13 89° E 20:04:30 10° NNE
IUS-7 SRM-1 4.5 19:33:32 10° WSW 19:59:48 83° SSE 20:03:17 16° ENE
Cosmos 1603 4.4 20:02:52 10° N 20:08:01 35° ENE 20:09:32 30° ESE
FREGAT/IRIS 2.4 20:08:54 66° E 20:08:57 66° E 20:11:51 10° N
Intercosmos 25 4.0 20:05:40 10° SSW 20:09:15 46° W 20:12:17 10° NNW
OAO 2 Rocket 4.0 20:04:16 10° NW 20:09:18 45° NE 20:11:19 31° E
BLOCK DM-SL R/B 3.3 20:04:18 10° W 20:11:11 81° S 20:13:39 31° E
Cosmos 1733 3.7 20:18:07 10° N 20:20:58 42° NE 20:20:58 42° NE
GOES 2 Rocket 2.9 20:18:18 10° WNW 20:22:31 67° SSW 20:23:09 57° SSE
GPS 2-17 Rocket1 3.7 20:18:39 10° NW 20:23:16 47° NNE 20:24:19 40° ENE
ASTRO E2 3.7 20:21:18 10° NNW 20:24:53 33° NNE 20:24:53 33° NNE
GPS 2-15 Rocket1 4.3 20:23:04 10° NW 20:27:18 31° NNE 20:28:15 28° NE
ATLAS 2AS CENTAUR R/B 4.5 20:24:30 10° SW 20:30:52 35° WNW 20:37:43 10° N
SPOT 3 Rocket 4.2 20:26:43 15° S 20:30:54 54° WSW 20:35:57 10° NNW
ATLAS V CENTAUR R/B 4.5 20:30:30 10° WSW 20:30:55 16° WSW 20:30:55 16° WSW
BREEZE M DEB (TANK) 3.9 20:34:07 10° NNW 20:35:24 20° NNW 20:35:24 20° NNW
Cosmos 1371 Rocket 4.0 20:32:46 10° NNW 20:37:56 80° WSW 20:39:13 52° S
Cosmos 1844 Rocket 3.7 20:37:12 10° SSW 20:42:35 45° WNW 20:47:57 10° N
Cosmos 1943 3.9 20:41:32 10° N 20:45:37 39° NE 20:45:37 39° NE
Cosmos 2056 Rocket 3.5 20:45:46 10° NNW 20:51:01 76° WSW 20:51:20 73° SW
Cosmos 1844 4.4 20:45:50 10° SSW 20:51:15 51° WNW 20:56:44 10° N
Cosmos 494 Rocket 4.1 20:49:59 46° SSW 20:51:32 73° WNW 20:56:43 10° N
Cosmos 1758 Rocket 4.3 20:53:14 51° NNW 20:53:14 51° NNW 20:56:42 10° N
Cosmos 1624 Rocket 4.3 20:49:55 10° NNW 20:55:07 62° WSW 20:55:33 60° SW
CZ-3C R/B 4.3 20:52:37 10° SW 21:01:30 57° SSE 22:28:38 10° ENE
NOSS 3-4 (A) 3.9 21:03:07 10° SW 21:09:20 59° WNW 21:15:21 10° NNE
NOSS 3-4 (C) 3.8 21:03:14 10° SW 21:09:25 59° WNW 21:15:26 10° NNE
Iridium 4 Rocket 4.2 21:11:15 58° NNW 21:11:15 58° NNW 21:15:46 10° N
Resurs 01 Rocket 4.1 21:14:30 15° N 21:14:30 15° N 21:15:12 10° N
Meteor 1-24 Rocket 4.2 21:11:07 57° WSW 21:11:47 60° W 21:17:42 10° N
Hubble Space Telescope 3.8 21:11:27 10° N 21:11:30 10° N 21:11:30 10° N
ARIANE 5 R/B 3.3 21:04:03 10° WSW 21:14:28 39° SW 21:14:28 39° SW
ARIANE 5 DEB (SYLDA) 4.0 21:07:52 10° W 21:27:18 79° W 21:27:18 79° W
